sat.trackr.live / text

‹ back to catalog

AEROCUBE 6A

NORAD 40045 · 2014-033AM

PAYLOAD ACTIVE UNKNOWN

§ Identity

Operator
Country
US
Launch date
2014-06-19
Launch site
DLS
Launch vehicle
Mass (kg)
RCS (m²)
0.02

Purposes: tech_demo

External: N2YO · Heavens-Above · Gunter

§ Orbital elements

Epoch: 2026-09-20T04:13:35.853024Z

Period
96.07 min
Inclination
97.7322°
Eccentricity
0.0038575
Mean motion
14.98951825 rev/d
Perigee alt
543.3 km
Apogee alt
596.9 km
Semi-major
6,948.3 km
B*
2.2345e-4
RAAN
69.2315°
Arg perigee
56.3851°
Mean anomaly
304.1044°
Rev number
66,084

§ Raw data

AEROCUBE 6A1 40045U 14033AM  26263.17610941  .00002684  00000+0  22345-3 0  99902 40045  97.7322  69.2315 0038575  56.3851 304.1044 14.98951825660849

JSON: /api/v1/satellites/40045 · /tle

For live sub-satellite position, see the globe view (requires WebGL).

§ Visibility from observer

Set your observer location to see the next 7 days of passes ≥ 10°. The values pass through the URL so the page stays shareable.

No JS? Fill the form by hand. The geolocation button needs JavaScript.